GW6223 Weather Reports


Display with metric or nautical units.
time (UTC)temp
F
wind
direction
speed
MPH
gust
MPH
rain 1hr
in
rain 24hr
in
rain mn
in
humidity
%
barometer
mb
20260506073518 57 172 0.0 4.0 0.00 0.00 0.00 94 1016.4
20260506073015 57 103 0.0 2.0 0.00 0.00 0.00 94 1016.5
20260506072513 57 38 2.0 2.0 0.00 0.00 0.00 93 1016.3
20260506072010 57 83 1.0 2.0 0.00 0.00 0.00 93 1016.5
20260506071508 57 38 0.0 2.0 0.00 0.00 0.00 93 1016.3
20260506071005 57 137 0.0 2.0 0.00 0.00 0.00 93 1016.5
20260506070502 58 50 0.0 0.0 0.00 0.00 0.00 93 1016.4
20260506062439 58 4 0.0 2.0 0.00 0.00 0.00 94 1016.7
20260506061935 58 72 0.0 2.0 0.00 0.00 0.00 94 1016.6
20260506061432 57 89 0.0 0.0 0.00 0.00 0.00 93 1016.9
20260506060930 57 44 0.0 1.0 0.00 0.00 0.00 93 1016.9
20260506060428 58 51 2.0 2.0 0.00 0.00 0.00 93 1016.7
20260506051400 58 180 0.0 2.0 0.00 0.00 0.00 91 1017.6
20260506050857 58 50 0.0 2.0 0.00 0.00 0.00 90 1017.7
20260506050354 58 29 1.0 1.0 0.00 0.00 0.00 90 1017.6
20260506044845 59 119 0.0 1.0 0.00 0.00 0.00 89 1018.0
20260506044343 59 37 2.0 2.0 0.00 0.00 0.00 88 1017.9
20260506043839 59 50 0.0 1.0 0.00 0.00 0.00 87 1017.9
20260506043337 60 32 0.0 1.0 0.00 0.00 0.00 86 1017.9
20260506042835 60 55 0.0 1.0 0.00 0.00 0.00 85 1017.8
20260506042334 60 147 0.0 1.0 0.00 0.00 0.00 85 1017.9
20260506041832 61 76 0.0 1.0 0.00 0.00 0.00 84 1017.8
20260506041329 61 142 2.0 3.0 0.00 0.00 0.00 84 1018.0
20260506040826 61 230 0.0 2.0 0.00 0.00 0.00 84 1017.9
20260506040323 61 145 0.0 1.0 0.00 0.00 0.00 83 1017.9
20260506035819 62 147 0.0 0.0 0.00 0.00 0.00 83 1018.1
20260506035317 62 212 0.0 2.0 0.00 0.00 0.00 83 1017.9
20260506034814 62 240 0.0 2.0 0.00 0.00 0.00 82 1018.0
20260506034311 62 91 0.0 2.0 0.00 0.00 0.00 82 1018.0
20260506033808 62 214 0.0 2.0 0.00 0.00 0.00 82 1018.1
20260506033305 62 83 0.0 2.0 0.00 0.00 0.00 81 1018.1
20260506032802 62 205 0.0 4.0 0.00 0.00 0.00 81 1018.0
20260506032259 63 218 1.0 2.0 0.00 0.00 0.00 80 1018.1
20260506031755 63 304 0.0 2.0 0.00 0.00 0.00 80 1018.0
20260506031253 63 239 2.0 4.0 0.00 0.00 0.00 80 1018.2
20260506030751 63 227 1.0 2.0 0.00 0.00 0.00 79 1018.0
20260506030248 63 156 0.0 3.0 0.00 0.00 0.00 79 1018.1
20260506025745 63 142 0.0 4.0 0.00 0.00 0.00 79 1018.0
20260506025241 63 164 1.0 4.0 0.00 0.00 0.00 78 1018.0
20260506024738 64 142 1.0 2.0 0.00 0.00 0.00 78 1018.1
20260506024235 64 29 1.0 3.0 0.00 0.00 0.00 77 1018.0
20260506023731 64 229 0.0 4.0 0.00 0.00 0.00 76 1018.0
20260506023228 64 210 1.0 2.0 0.00 0.00 0.00 76 1018.0
20260506022725 64 173 2.0 3.0 0.00 0.00 0.00 76 1018.0
20260506022223 65 180 0.0 3.0 0.00 0.00 0.00 75 1018.0
20260506021721 65 142 1.0 3.0 0.00 0.00 0.00 75 1018.1
20260506021218 65 289 0.0 3.0 0.00 0.00 0.00 74 1018.0
20260506020714 65 157 3.0 4.0 0.00 0.00 0.00 74 1017.9
20260506020212 65 214 0.0 5.0 0.00 0.00 0.00 74 1018.0
20260506015709 65 226 5.0 5.0 0.00 0.00 0.00 74 1018.0
20260506015207 66 203 2.0 4.0 0.00 0.00 0.00 74 1017.7
20260506014704 66 141 0.0 3.0 0.00 0.00 0.00 73 1017.7
20260506014159 66 214 1.0 3.0 0.00 0.00 0.00 73 1017.8
20260506013658 66 184 3.0 3.0 0.00 0.00 0.00 72 1017.8
20260506013154 67 155 1.0 7.0 0.00 0.00 0.00 72 1017.7
20260506012651 67 215 1.0 4.0 0.00 0.00 0.00 72 1017.5
20260506012147 67 228 2.0 3.0 0.00 0.00 0.00 72 1017.7
20260506011645 67 2 1.0 4.0 0.00 0.00 0.00 71 1017.7
20260506011141 67 233 4.0 4.0 0.00 0.00 0.00 71 1017.4
20260506010640 67 223 5.0 5.0 0.00 0.00 0.00 71 1017.3
20260506010137 68 128 5.0 5.0 0.00 0.00 0.00 70 1017.4
20260506005633 68 210 3.0 6.0 0.00 0.00 0.00 70 1017.2
20260506005130 68 185 2.0 11.0 0.00 0.00 0.00 70 1017.2
20260506004626 68 98 0.0 5.0 0.00 0.00 0.00 69 1017.2
20260506004124 68 262 2.0 6.0 0.00 0.00 0.00 69 1017.3
20260506003620 68 115 3.0 4.0 0.00 0.00 0.00 68 1017.1
20260506003116 69 183 2.0 9.0 0.00 0.00 0.00 68 1016.9
20260506002612 69 178 2.0 8.0 0.00 0.00 0.00 68 1017.0
20260506002108 69 181 3.0 5.0 0.00 0.00 0.00 67 1016.9
20260506001604 69 181 3.0 3.0 0.00 0.00 0.00 66 1017.0
20260506001102 70 190 3.0 8.0 0.00 0.00 0.00 65 1017.0
20260506000559 70 192 2.0 5.0 0.00 0.00 0.00 64 1017.0
20260506000056 70 9 0.0 5.0 0.00 0.00 0.00 64 1017.0
20260505235555 70 182 2.0 5.0 0.00 0.00 0.00 63 1016.9
20260505235051 71 94 2.0 4.0 0.00 0.00 0.00 63 1017.2
20260505234548 71 208 2.0 5.0 0.00 0.00 0.00 62 1016.9
20260505234045 71 223 2.0 5.0 0.00 0.00 0.00 61 1016.7
20260505233542 71 203 4.0 9.0 0.00 0.00 0.00 60 1016.7
20260505233040 72 164 4.0 6.0 0.00 0.00 0.00 59 1016.8
20260505232537 72 206 4.0 13.0 0.00 0.00 0.00 59 1016.7
20260505232035 73 181 2.0 9.0 0.00 0.00 0.00 59 1016.6
20260505231531 73 92 0.0 11.0 0.00 0.00 0.00 59 1016.8
20260505231030 73 155 0.0 9.0 0.00 0.00 0.00 59 1016.7
20260505230527 74 150 1.0 6.0 0.00 0.00 0.00 59 1016.7
20260505230024 74 255 1.0 10.0 0.00 0.00 0.00 59 1016.8
20260505225520 74 193 5.0 9.0 0.00 0.00 0.00 58 1016.6
20260505225016 75 171 7.0 9.0 0.00 0.00 0.00 57 1016.8
20260505224514 75 199 3.0 9.0 0.00 0.00 0.00 58 1016.8
20260505224011 75 129 9.0 9.0 0.00 0.00 0.00 56 1016.7
20260505223508 75 217 3.0 11.0 0.00 0.00 0.00 57 1016.5
20260505223004 75 146 9.0 12.0 0.00 0.00 0.00 56 1016.4
20260505222500 76 225 7.0 10.0 0.00 0.00 0.00 55 1016.6
20260505221956 76 159 4.0 13.0 0.00 0.00 0.00 55 1016.7
20260505221454 77 200 7.0 9.0 0.00 0.00 0.00 54 1016.6
20260505220950 77 185 6.0 11.0 0.00 0.00 0.00 53 1016.7
20260505220448 77 209 2.0 7.0 0.00 0.00 0.00 54 1016.6
20260505215945 77 191 4.0 9.0 0.00 0.00 0.00 53 1016.7
20260505215443 77 155 4.0 13.0 0.00 0.00 0.00 52 1016.6
20260505214941 77 108 5.0 11.0 0.00 0.00 0.00 52 1016.6
20260505214438 77 126 4.0 14.0 0.00 0.00 0.00 50 1016.5
20260505213935 78 152 5.0 10.0 0.00 0.00 0.00 49 1016.6
20260505213433 78 185 5.0 13.0 0.00 0.00 0.00 49 1016.6
20260505212929 77 223 3.0 7.0 0.00 0.00 0.00 50 1016.5
20260505212426 77 181 5.0 12.0 0.00 0.00 0.00 49 1016.6
20260505211922 78 215 5.0 13.0 0.00 0.00 0.00 49 1016.5
20260505211420 78 202 4.0 13.0 0.00 0.00 0.00 49 1016.5
20260505210916 78 148 6.0 13.0 0.00 0.00 0.00 49 1016.5
20260505210414 77 196 4.0 9.0 0.00 0.00 0.00 49 1016.4
20260505205910 77 164 6.0 15.0 0.00 0.00 0.00 49 1016.3
20260505205409 78 246 7.0 8.0 0.00 0.00 0.00 49 1016.4
20260505204905 78 225 2.0 11.0 0.00 0.00 0.00 50 1016.4
20260505204403 79 142 6.0 13.0 0.00 0.00 0.00 48 1016.6
20260505203900 78 207 3.0 11.0 0.00 0.00 0.00 49 1016.4
20260505203356 78 168 3.0 7.0 0.00 0.00 0.00 50 1016.4
20260505202853 78 157 3.0 9.0 0.00 0.00 0.00 49 1016.4
20260505202349 80 142 10.0 14.0 0.00 0.00 0.00 47 1016.4
20260505201846 79 240 2.0 10.0 0.00 0.00 0.00 48 1016.3
20260505201343 78 226 4.0 9.0 0.00 0.00 0.00 49 1016.3
20260505200841 79 158 4.0 12.0 0.00 0.00 0.00 47 1016.3
20260505200338 80 257 10.0 13.0 0.00 0.00 0.00 47 1016.5
20260505195833 80 170 6.0 11.0 0.00 0.00 0.00 48 1016.5
20260505195331 80 188 2.0 13.0 0.00 0.00 0.00 47 1016.7
20260505194828 80 220 6.0 9.0 0.00 0.00 0.00 47 1016.8
20260505194325 80 186 4.0 8.0 0.00 0.00 0.00 48 1016.8
20260505193820 80 211 5.0 13.0 0.00 0.00 0.00 47 1017.0
20260505193318 81 141 1.0 6.0 0.00 0.00 0.00 49 1017.0
20260505192816 80 163 6.0 10.0 0.00 0.00 0.00 46 1017.0
20260505192314 80 213 4.0 6.0 0.00 0.00 0.00 45 1017.1
20260505191812 80 189 3.0 8.0 0.00 0.00 0.00 46 1017.2
20260505191309 81 116 4.0 12.0 0.00 0.00 0.00 45 1017.3
20260505190806 82 228 1.0 9.0 0.00 0.00 0.00 48 1017.2
20260505190301 81 131 2.0 7.0 0.00 0.00 0.00 44 1017.3
20260505185758 81 249 1.0 5.0 0.00 0.00 0.00 48 1017.5
20260505185254 81 241 9.0 10.0 0.00 0.00 0.00 45 1017.7
20260505184750 80 165 2.0 6.0 0.00 0.00 0.00 49 1017.4
20260505184248 80 220 6.0 11.0 0.00 0.00 0.00 45 1017.7
20260505183744 79 134 3.0 6.0 0.00 0.00 0.00 47 1017.6
20260505183242 79 231 4.0 7.0 0.00 0.00 0.00 46 1017.6
20260505182738 79 184 5.0 9.0 0.00 0.00 0.00 47 1017.6
20260505182235 80 139 6.0 10.0 0.00 0.00 0.00 47 1017.5
20260505181731 80 215 0.0 7.0 0.00 0.00 0.00 48 1017.9
20260505181229 79 174 3.0 9.0 0.00 0.00 0.00 46 1017.9
20260505180725 79 121 4.0 4.0 0.00 0.00 0.00 51 1017.9
20260505180222 79 180 7.0 9.0 0.00 0.00 0.00 47 1017.9
20260505175718 78 210 3.0 6.0 0.00 0.00 0.00 48 1017.9
20260505175215 79 198 4.0 7.0 0.00 0.00 0.00 46 1018.1
20260505174711 79 204 5.0 12.0 0.00 0.00 0.00 45 1017.9
20260505174208 79 205 2.0 4.0 0.00 0.00 0.00 52 1017.9
20260505173704 79 172 5.0 9.0 0.00 0.00 0.00 49 1017.9
20260505173201 79 243 3.0 7.0 0.00 0.00 0.00 50 1017.9
20260505172659 79 165 2.0 12.0 0.00 0.00 0.00 48 1018.1
20260505172155 79 202 2.0 7.0 0.00 0.00 0.00 47 1017.9
20260505171655 79 216 4.0 9.0 0.00 0.00 0.00 47 1018.1
20260505171152 78 89 0.0 9.0 0.00 0.00 0.00 50 1018.1
20260505170649 78 173 3.0 10.0 0.00 0.00 0.00 48 1018.1
20260505170146 78 182 2.0 8.0 0.00 0.00 0.00 48 1018.2
20260505165646 77 209 3.0 6.0 0.00 0.00 0.00 53 1018.3
20260505165143 77 105 1.0 6.0 0.00 0.00 0.00 51 1018.3
20260505164638 77 200 4.0 9.0 0.00 0.00 0.00 50 1018.4
20260505164136 77 114 3.0 6.0 0.00 0.00 0.00 50 1018.3
20260505163634 77 197 4.0 5.0 0.00 0.00 0.00 49 1018.6
20260505163132 77 203 4.0 7.0 0.00 0.00 0.00 51 1018.8
20260505162629 76 198 2.0 4.0 0.00 0.00 0.00 52 1018.7
20260505162126 77 159 4.0 11.0 0.00 0.00 0.00 51 1018.9
20260505161623 77 208 6.0 11.0 0.00 0.00 0.00 52 1018.9
20260505161120 77 152 4.0 4.0 0.00 0.00 0.00 55 1018.9
20260505160618 77 232 2.0 5.0 0.00 0.00 0.00 53 1018.9
20260505160115 77 315 3.0 3.0 0.00 0.00 0.00 54 1019.1
20260505153055 75 148 4.0 7.0 0.00 0.00 0.00 55 1018.9
20260505152551 75 92 2.0 6.0 0.00 0.00 0.00 54 1019.1
20260505152047 75 217 3.0 8.0 0.00 0.00 0.00 56 1019.2
20260505151542 74 157 3.0 6.0 0.00 0.00 0.00 56 1019.2
20260505151040 74 228 10.0 13.0 0.00 0.00 0.00 56 1019.0
20260505150536 74 205 2.0 9.0 0.00 0.00 0.00 55 1019.3
20260505140501 72 216 3.0 6.0 0.00 0.00 0.00 62 1019.1
20260505124915 67 194 2.0 4.0 0.00 0.00 0.00 71 1019.2
20260505124412 67 217 3.0 7.0 0.00 0.00 0.00 72 1019.4
20260505123908 66 162 4.0 5.0 0.00 0.00 0.00 72 1019.2
20260505123404 65 121 0.0 3.0 0.00 0.00 0.00 74 1019.3
20260505122900 65 254 4.0 5.0 0.00 0.00 0.00 74 1019.3
20260505122358 65 166 2.0 2.0 0.00 0.00 0.00 77 1019.2
20260505121854 64 116 1.0 2.0 0.00 0.00 0.00 78 1019.4
20260505121351 63 259 0.0 5.0 0.00 0.00 0.00 78 1019.3
20260505120847 62 195 2.0 2.0 0.00 0.00 0.00 80 1019.3
20260505120343 62 161 2.0 4.0 0.00 0.00 0.00 81 1019.0
20260505115842 61 160 2.0 3.0 0.00 0.00 0.00 82 1019.2
20260505115339 60 154 2.0 3.0 0.00 0.00 0.00 83 1019.1
20260505114837 59 244 1.0 4.0 0.00 0.00 0.00 85 1018.9
20260505114334 58 126 2.0 4.0 0.00 0.00 0.00 87 1018.9
20260505113830 57 181 0.0 2.0 0.00 0.00 0.00 90 1019.0
20260505113327 55 180 2.0 5.0 0.00 0.00 0.00 91 1018.9
20260505112822 55 128 2.0 3.0 0.00 0.00 0.00 91 1018.9
20260505112320 54 172 2.0 6.0 0.00 0.00 0.00 92 1018.9
20260505111816 54 129 0.0 3.0 0.00 0.00 0.00 93 1018.8
20260505111311 54 177 2.0 3.0 0.00 0.00 0.00 93 1018.8
20260505110807 53 195 0.0 2.0 0.00 0.00 0.00 93 1018.6
20260505110305 53 170 2.0 3.0 0.00 0.00 0.00 93 1019.0
20260505101739 52 178 0.0 2.0 0.00 0.00 0.00 93 1018.2
20260505101235 52 89 0.0 3.0 0.00 0.00 0.00 93 1018.1
20260505100732 52 118 1.0 3.0 0.00 0.00 0.00 92 1018.1
20260505100228 52 94 2.0 2.0 0.00 0.00 0.00 92 1017.8
20260505095724 53 134 0.0 3.0 0.00 0.00 0.00 92 1018.1
20260505095222 52 125 2.0 2.0 0.00 0.00 0.00 92 1018.1
20260505094717 52 92 1.0 2.0 0.00 0.00 0.00 91 1018.0
20260505094214 53 117 2.0 2.0 0.00 0.00 0.00 91 1018.0
20260505093710 53 120 2.0 2.0 0.00 0.00 0.00 91 1017.9
20260505093208 53 193 0.0 2.0 0.00 0.00 0.00 91 1017.7
20260505092704 53 118 1.0 2.0 0.00 0.00 0.00 91 1017.8
20260505092203 53 104 0.0 2.0 0.00 0.00 0.00 90 1017.8
20260505091700 53 147 0.0 1.0 0.00 0.00 0.00 89 1017.6
20260505091158 53 131 1.0 2.0 0.00 0.00 0.00 89 1017.7
20260505090655 54 118 2.0 2.0 0.00 0.00 0.00 89 1017.6
20260505090154 54 126 1.0 2.0 0.00 0.00 0.00 88 1017.6
20260505085650 54 95 1.0 2.0 0.00 0.00 0.00 88 1017.6
20260505085149 54 132 1.0 3.0 0.00 0.00 0.00 88 1017.4
20260505084646 54 143 2.0 2.0 0.00 0.00 0.00 88 1017.4
20260505084144 54 131 0.0 3.0 0.00 0.00 0.00 87 1017.5
20260505083642 55 134 2.0 2.0 0.00 0.00 0.00 87 1017.5
20260505083138 55 138 1.0 2.0 0.00 0.00 0.00 86 1017.3
20260505082634 55 131 0.0 2.0 0.00 0.00 0.00 85 1017.3
20260505082131 55 119 1.0 2.0 0.00 0.00 0.00 85 1017.2
20260505081626 56 128 1.0 2.0 0.00 0.00 0.00 84 1017.4
20260505081125 56 135 0.0 3.0 0.00 0.00 0.00 84 1017.4
20260505080621 56 116 2.0 2.0 0.00 0.00 0.00 84 1017.2